This is the latest recevied weather packets stored in our database for station/object KA8DUX-2. If no packets are shown the sender has not sent any weather packets the latest 10 day(s).
| Time | Temp. | Humidity | Pressure | Rain* | Wind** | Luminosity | Snow |
|---|---|---|---|---|---|---|---|
| 1778069958 | 5° C | 73% | 1011.4 hPa | 0 mm | - | 54 W/m² | - |
| 1778069655 | 5° C | 74% | 1011.2 hPa | 0 mm | - | 68 W/m² | - |
| 1778069352 | 5° C | 74% | 1010.8 hPa | 0 mm | - | 39 W/m² | - |
| 1778069049 | 4.44° C | 75% | 1011 hPa | 0 mm | - | 35 W/m² | - |
| 1778068747 | 4.44° C | 75% | 1011.1 hPa | 0 mm | - | 33 W/m² | - |
| 1778068445 | 4.44° C | 76% | 1010.8 hPa | 0 mm | - | 33 W/m² | - |
| 1778068143 | 3.89° C | 76% | 1010.7 hPa | 0 mm | - | 33 W/m² | - |
| 1778067840 | 3.89° C | 77% | 1010.6 hPa | 0 mm | - | 31 W/m² | - |
| 1778067539 | 3.89° C | 77% | 1010.4 hPa | 0 mm | - | 29 W/m² | - |
| 1778067235 | 3.89° C | 78% | 1010.3 hPa | 0 mm | - | 28 W/m² | - |
| 1778066932 | 3.33° C | 78% | 1010.4 hPa | 0 mm | - | 24 W/m² | - |
| 1778066629 | 3.33° C | 79% | 1010.1 hPa | 0 mm | - | 21 W/m² | - |
| 1778066326 | 3.33° C | 80% | 1009.9 hPa | 0 mm | - | 19 W/m² | - |
| 1778066025 | 2.78° C | 81% | 1009.9 hPa | 0 mm | - | 16 W/m² | - |
| 1778065722 | 2.78° C | 82% | 1009.9 hPa | 0 mm | - | 17 W/m² | - |
| 1778065419 | 2.22° C | 83% | 1009.8 hPa | 0 mm | - | 17 W/m² | - |
| 1778065116 | 2.22° C | 84% | 1009.8 hPa | 0 mm | - | 18 W/m² | - |
| 1778064812 | 2.22° C | 84% | 1010 hPa | 0 mm | - | 15 W/m² | - |
| 1778064510 | 2.22° C | 86% | 1009.9 hPa | 0 mm | - | 14 W/m² | - |
| 1778064207 | 1.67° C | 87% | 1010.1 hPa | 0 mm | - | 8 W/m² | - |
| 1778063905 | 1.67° C | 87% | 1009.9 hPa | 0 mm | - | 5 W/m² | - |
| 1778063602 | 1.67° C | 87% | 1010 hPa | 0 mm | - | 3 W/m² | - |
| 1778063299 | 1.67° C | 87% | 1009.8 hPa | 0 mm | - | 1 W/m² | - |
| 1778062997 | 1.67° C | 87% | 1009.8 hPa | 0 mm | - | 0 W/m² | - |
| 1778062694 | 1.67° C | 87% | 1010 hPa | 0 mm | - | 0 W/m² | - |
* Rain latest hour (hover to see other rain measurements)
** Current wind speed in m/s (hover to see current wind gust speed)